Regional Weather Roundup
Issued by NWS Goodland, KS

Home | Current Version | Previous Version | Graphics & Text | Print | Product List | Glossary On
Versions: 1 2 3 4 5 6 7 8 9 10 11 12 13 14 15 16 17 18 19 20 21 22 23 24 25 26 27 28 29 30 31 32 33 34 35 36 37 38 39 40 41 42 43 44 45 46 47 48 49 50
000
ASUS43 KGLD 300408
RWRGLD

GOODLAND FORECAST AREA HOURLY WEATHER ROUNDUP
NATIONAL WEATHER SERVICE GOODLAND KS
900 PM MST THU JAN 29 2015

...OFFICIAL OBSERVATIONS...

CITY           SKY/WX    TMP DP  RH WIND       PRES   REMARKS
GOODLAND KS    CLEAR     26  20  77 S10       30.47S WCI  16
HILL CITY KS   PTCLDY    22  15  75 W5        30.51S
IMPERIAL NEB   PTCLDY    27  17  66 CALM      30.45F
MCCOOK NEB     PTCLDY    24  17  74 SW5       30.48S
AKRON CO       PTCLDY    33  16  49 S12       30.41F
BURLINGTON CO  PTCLDY    30  18  60 S10       30.45S
LIMON CO       MOCLDY    28  21  75 SE3       30.42F
$$

...UNOFFICIAL OBSERVATIONS...

CITY           SKY/WX    TMP DP  RH WIND       PRES   REMARKS
COLBY KS       CLEAR     25  23  93 CALM      30.48F
GOVE KS          N/A     20  32 100 MISG        N/A
NORTON KS      CLEAR     19  12  73 SW7       30.48F
SHARON SPRINGS   N/A     26  19  73 S5          N/A
KIT CARSON CO    N/A     26  14  60 MISG        N/A
YUMA CO          N/A     27  15  60 N7          N/A
$$


USA.gov is the U.S. government's official web portal to all federal, state and local government web resources and services.